Terminal Aerodrome Forecast
Issued by NWS Glasgow, MT

Home | Current Version | Previous Version | Text Only | Print | Product List | Glossary On
Versions: 1 2 3 4 5 6 7 8 9 10 11 12
000
FTUS45 KGGW 162300
TAFGGW
TAF
KGGW 162320Z 1700/1724 15007KT P6SM FEW250
     FM170900 08008KT P6SM SCT240
     FM171800 12014KT P6SM SCT130=

USA.gov is the U.S. government's official web portal to all federal, state and local government web resources and services.